Find Starlink 32220

NORAD ID: 60370 Int'l Des: 2024-138 Owner: SPXS Country: US Constellation: starlink operational
LEOCIRCULAR

当前视图

正在加载3D地球...

About Starlink 32220

Starlink 32220 (NORAD 60370) is a starlink constellation satellite (v2 mini) launched Aug 4, 2024 by SPXS of US. It operates in LEO, CIRCULAR orbit with a mass of 730.00 kg.

关于 Starlink 32220

正在加载描述...

即将过境

Passes for default location (London). Set your location on the main map for personalized predictions.

高度历史

Loading altitude history...

两行轨道根数

1 60370U 24138R 26195.38687562 .00000405 00000-0 25805-4 0 9995
2 60370 53.1602 81.2396 0001331 109.3757 250.7387 15.30191324110029
Epoch: Jul 14, 2026 • Age: 10 hours

当前状态

高度 478.9 km
远地点 / 近地点 N/A
速度 7.63 km/s
星下点 44.41°N, 8.35°W
发射日期 Aug 4, 2024
运行时间 1.9 years
类型 internet

技术详情

分类 Payload
质量 730.00 kg
干质量 700.00 kg
总质量 730.00 kg
长度 0.30 m
直径 4.10 m
跨度 29.00 m
形状 Box + pan
制造商 SPXS
平台类型 Starlink V2M
阶段状态 In Orbit
所有者/国家 SPXS/US

Most Searched